TimeEDT,TemperatureF,Dew PointF,Humidity,Sea Level PressureIn,VisibilityMPH,Wind Direction,Wind SpeedMPH,Gust SpeedMPH,PrecipitationIn,Events,Conditions,WindDirDegrees,DateUTC
12:56 AM,63.0,61.0,93,29.99,0.5,Calm,Calm,-,N/A,Fog,Fog,0,2012-10-03 04:56:00
1:56 AM,62.1,61.0,96,29.99,0.2,Calm,Calm,-,N/A,Fog,Fog,0,2012-10-03 05:56:00
2:56 AM,62.1,61.0,96,29.99,0.5,Calm,Calm,-,N/A,Fog,Fog,0,2012-10-03 06:56:00
3:56 AM,63.0,62.1,97,29.99,0.5,NNE,3.5,-,0.01,Fog,Fog,20,2012-10-03 07:56:00
4:56 AM,62.1,61.0,96,30.01,0.5,Calm,Calm,-,N/A,Fog,Fog,0,2012-10-03 08:56:00
5:56 AM,63.0,62.1,97,30.01,0.2,Calm,Calm,-,N/A,Fog,Fog,0,2012-10-03 09:56:00
6:56 AM,62.6,62.6,100,30.04,0.2,Calm,Calm,-,N/A,Fog,Fog,0,2012-10-03 10:56:00
7:56 AM,63.0,62.1,97,30.05,0.2,ENE,3.5,-,N/A,Fog,Fog,60,2012-10-03 11:56:00
8:56 AM,64.0,63.0,96,30.06,0.2,ESE,3.5,-,N/A,Fog,Fog,110,2012-10-03 12:56:00
9:56 AM,64.9,64.0,97,30.06,0.2,Variable,3.5,-,N/A,Fog,Fog,0,2012-10-03 13:56:00
10:56 AM,64.4,64.4,100,30.08,1.0,ESE,3.5,-,N/A,Rain,Light Rain,120,2012-10-03 14:56:00
11:56 AM,66.0,64.9,96,30.06,1.2,SE,5.8,-,0.15,Rain,Light Rain,130,2012-10-03 15:56:00
12:56 PM,66.9,64.9,93,30.06,2.0,ESE,3.5,-,0.00,,Overcast,110,2012-10-03 16:56:00
1:56 PM,66.9,64.9,93,30.05,0.5,ESE,3.5,-,N/A,Fog,Fog,120,2012-10-03 17:56:00
2:56 PM,66.9,64.9,93,30.06,1.2,Calm,Calm,-,N/A,,Overcast,0,2012-10-03 18:56:00
3:56 PM,66.9,64.9,93,30.05,0.8,East,3.5,-,0.00,,Mist,100,2012-10-03 19:56:00
4:56 PM,66.9,66.0,97,30.06,0.8,Calm,Calm,-,0.00,Rain,Light Rain,0,2012-10-03 20:56:00
5:41 PM,66.2,66.2,100,30.08,0.2,Calm,Calm,-,0.00,Fog,Fog,0,2012-10-03 21:41:00
5:56 PM,66.9,66.0,97,30.07,0.2,ESE,3.5,-,0.00,Fog,Fog,110,2012-10-03 21:56:00
6:56 PM,66.9,66.0,97,30.07,0.2,Calm,Calm,-,N/A,Fog,Fog,0,2012-10-03 22:56:00
7:56 PM,66.9,66.0,97,30.09,0.2,Calm,Calm,-,N/A,Fog,Fog,0,2012-10-03 23:56:00
8:32 PM,66.2,66.2,100,30.10,0.2,Calm,Calm,-,N/A,Fog,Fog,0,2012-10-04 00:32:00
8:56 PM,66.9,66.0,97,30.10,0.2,Calm,Calm,-,N/A,Fog,Fog,0,2012-10-04 00:56:00
9:56 PM,66.9,66.0,97,30.11,0.2,Calm,Calm,-,0.01,Fog,Fog,0,2012-10-04 01:56:00
10:56 PM,66.9,66.0,97,30.11,0.2,Calm,Calm,-,N/A,Fog,Fog,0,2012-10-04 02:56:00
11:03 PM,66.2,66.2,100,30.12,0.2,Calm,Calm,-,N/A,Fog,Fog,0,2012-10-04 03:03:00
11:56 PM,66.9,66.0,97,30.12,0.2,Calm,Calm,-,N/A,Fog,Fog,0,2012-10-04 03:56:00